This demonstration page uses our WeatherBlox Daily Observations layout. Learn more.

Left ArrowRight Arrow

Hourly Observations for January 21, 2015

Temp ( °F °C ) Dew Point ( °F °C ) Humidity (%) Winds ( mph kmh ) Pressure ( in mb ) Visibility ( mi km ) Precip ( " mm )
12:52 am 00:52 Mostly Clear 35 1.7 29 -1.7 78 78 WNW 13 20 30.10 1019 10 16 0.00 0.00
1:52 am 01:52 Mostly Cloudy 35 1.7 29 -1.7 78 78 WNW 17 28 30.11 1020 10 16 0.00 0.00
3:52 am 03:52 Mostly Clear 31 -0.6 27 -2.8 85 85 WNW 8 13 30.12 1020 10 16 0.00 0.00
4:33 am 04:33 Mostly Cloudy 31 -0.6 28 -2.2 89 89 WNW 7 11 30.15 1021 10 16 0.00 0.00
4:52 am 04:52 Cloudy 33 0.6 28 -2.2 82 82 W 7 11 30.13 1020 10 16 0.00 0.00
5:18 am 05:18 Cloudy 32 0 27 -3 80 80 W 5 7 30.18 1022 10 16 0.00 0.00
5:52 am 05:52 Cloudy 33 0.6 28 -2.2 82 82 W 7 11 30.14 1021 10 16 0.00 0.00
6:52 am 06:52 Cloudy 34 1.1 28 -2.2 79 79 WNW 8 13 30.15 1021 10 16 0.00 0.00
7:52 am 07:52 Mostly Cloudy 34 1.1 28 -2.2 79 79 W 13 20 30.17 1022 10 16 0.00 0.00
8:52 am 08:52 Mostly Cloudy 34 1.1 27 -2.8 76 76 W 6 9 30.19 1023 10 16 0.00 0.00
9:52 am 09:52 Mostly Cloudy 36 2.2 27 -2.8 70 70 W 10 17 30.21 1023 10 16 0.00 0.00
10:52 am 10:52 Mostly Cloudy 39 3.9 28 -2.2 65 65 NW 12 19 30.23 1024 10 16 0.00 0.00
11:52 am 11:52 Mostly Cloudy 43 6.1 30 -1.1 60 60 NW 16 26 30.22 1024 10 16 0.00 0.00
12:52 pm 12:52 Mostly Cloudy 43 6.1 30 -1.1 60 60 N 13 20 30.22 1023 10 16 0.00 0.00
1:52 pm 13:52 Mostly Cloudy 42 5.6 30 -1.1 62 62 N 17 28 30.22 1023 10 16 0.00 0.00
2:52 pm 14:52 Mostly Cloudy 40 4.4 30 -1.1 68 68 NNW 8 13 30.23 1024 10 16 0.00 0.00
3:52 pm 15:52 Mostly Cloudy 39 3.9 31 -0.6 73 73 N 10 17 30.25 1025 10 16 0.00 0.00
4:52 pm 16:52 Mostly Cloudy 38 3.3 31 -0.6 76 76 N 7 11 30.27 1025 10 16 0.00 0.00
5:52 pm 17:52 Cloudy with Drizzle 36 2.2 31 -0.6 82 82 N 8 13 30.29 1026 10 16 0.00 0.03
6:52 pm 18:52 Cloudy with Drizzle 35 1.7 30 -1.1 82 82 NNW 8 13 30.33 1027 10 16 0.00 0.03
7:52 pm 19:52 Cloudy 34 1.1 30 -1.1 85 85 N 8 13 30.35 1028 10 16 0.00 0.03
8:38 pm 20:38 Cloudy with Light Snow 34 1 28 -2 81 81 NNW 9 15 30.42 1030 10 16 0.00 0.00
8:52 pm 20:52 Cloudy with Light Snow 33 0.6 29 -1.7 85 85 N 10 17 30.39 1029 9 14 0.00 0.03
9:52 pm 21:52 Cloudy 32 0 28 -2.2 85 85 NNW 9 15 30.40 1029 10 16 0.00 0.03
10:40 pm 22:40 Cloudy 32 0 27 -3 80 80 NNW 9 15 30.42 1030 10 16 0.00 0.00
10:52 pm 22:52 Cloudy 32 0 27 -2.8 82 82 NNW 8 13 30.40 1030 10 16 0.00 0.00
11:52 pm 23:52 Cloudy 31 -0.6 27 -2.8 85 85 NNW 6 9 30.42 1030 10 16 0.00 0.00

Powered by AerisWeather